Starlink 11123

operational
NORAD ID: 59948 Int'l Des: 2024-107 Owner: SPXS Country: US Constellation: starlink
LEOCIRCULAR

About Starlink 11123

Description loading...

Live Position

Loading 3D Globe...

Upcoming Passes

Altitude History

Altitude vs Time

uPlot chart will show altitude changes over time

Two-Line Element Set

1 59948U 24107D 25305.33473228 .00000547 00000-0 93731-5 0 9990
2 59948 53.1588 164.2092 0001215 83.0236 277.0920 15.69712112 82048
Epoch: Nov 1, 2025 • Age: 35 hours

Current Status

Altitude 364.9 km
Velocity 7.70 km/s
Sub-Earth Point 50.71°N, 112.28°W
Launch Date Jun 5, 2024
Age 1.4 years
Type internet

Technical Details

Classification Payload
Mass 960.00 kg
Dry Mass 910.00 kg
Total Mass 960.00 kg
Length 0.30 m
Diameter 4.10 m
Span 29.00 m
Shape Box + pan
Manufacturer SPXS
Bus Type Starlink V2MD
Phase Status In Orbit
Owner/State SPXS/US

Large Constellations

Loading constellations...